Regional Weather Roundup
Issued by NWS Sterling, VA

Home | Current Version | Previous Version | Text Only | Print | Product List | Glossary Off
Versions: 1 2 3 4 5 6 7 8 9 10 11 12 13 14 15 16 17 18 19 20 21 22 23 24 25 26 27 28 29 30 31 32 33 34 35 36 37 38 39 40 41 42 43 44 45 46 47 48 49 50

000
ASUS41 KLWX 021410
RWRLWX

REGIONAL WEATHER ROUNDUP
NATIONAL WEATHER SERVICE BALTIMORE MD/WASHINGTON DC
1000 AM EDT THU JUL 02 2015

Note: "FAIR" indicates few or no clouds below 12,000 feet
with no significant weather and/or obstructions to visibility.
 TC=TEMPERATURE CELSIUS

 * =Non NWS site. Station does not report precipitation (e.g. rain,
    snow, etc.), thunder, or fog.

DCZ001-MDZ009-015-VAZ040>042-051-053>054-021500-
WASHINGTON METRO

CITY           SKY/WX    TMP DP  RH WIND       PRES   REMARKS
WASHINGTON NAT CLOUDY    75  64  68 N12       29.92R
DULLES         CLOUDY    71  61  70 CALM      29.92F
ANDREWS AFB    CLOUDY    70  66  87 NE8       29.90S
FT BELVOIR     PTSUNNY   73  64  75 VRB5      29.90S
QUANTICO       PTSUNNY   74  63  68 NE10      29.90F
COLLEGE PARK*  CLOUDY    68  64  88 N5        29.92R
MANASSAS*      CLOUDY    66  66 100 CALM      29.91
GAITHERSBURG*  PTSUNNY   68  61  77 E5        29.96S

$$

MDZ006>007-011-014-021500-
BALTIMORE METRO

CITY           SKY/WX    TMP DP  RH WIND       PRES   REMARKS
BWI AIRPORT    LGT RAIN  68  63  83 E5        29.92R
MD SCIENCE CTR   N/A     71  62  73 MISG      29.92F
MARTIN STATE   DRIZZLE   68  66  94 CALM      29.93S
ANNAPOLIS      CLOUDY    72  65  78 N10       29.91R
FORT MEADE*    CLOUDY    66  63  88 CALM      29.95R

$$

MDZ012-015-019>023-021500-
MARYLAND EASTERN SHORE

CITY           SKY/WX    TMP DP  RH WIND       PRES   REMARKS
OCEAN CITY     CLOUDY    76  72  87 S5        29.87S FOG
SALISBURY      CLOUDY    72  71  97 N3        29.87S FOG
BAY BRIDGE AP*   N/A     70  64  83 N6        29.92R
CAMBRIDGE*     CLOUDY    72  68  88 N12       29.87S
EASTON*        LGT RAIN  72  72 100 E8        29.93S FOG

$$

MDZ017>025-021500-
SOUTHERN MARYLAND

CITY           SKY/WX    TMP DP  RH WIND       PRES   REMARKS
PATUXENT RIVER TSTM      69  67  93 N12       29.89R FOG
ST INIGOES     LGT RAIN  76  73  91 W9        29.87S FOG
LEONARDTOWN*   CLOUDY    68  64  88 N3        29.92R VSB 1/2

$$

MDZ003>005-021500-
NORTH CENTRAL MARYLAND

CITY           SKY/WX    TMP DP  RH WIND       PRES   REMARKS
FREDERICK*     CLOUDY    68  66  94 CALM      29.95S FOG
HAGERSTOWN APT PTSUNNY   70  60  70 CALM      29.93F
WESTMINSTER*   PTSUNNY   70  64  83 CALM      29.93F

$$

MDZ501>502-021500-
WESTERN MARYLAND

CITY           SKY/WX    TMP DP  RH WIND       PRES   REMARKS
OAKLAND*       PTSUNNY   63 N/A N/A CALM      30.01S
CUMBERLAND*    PTSUNNY   66  61  82 CALM      29.99S

$$

VAZ025>031-021500-
SHENANDOAH VALLEY

CITY           SKY/WX    TMP DP  RH WIND       PRES   REMARKS
WINCHESTER*    NOT AVBL
FRONT ROYAL*   NOT AVBL
LURAY*         NOT AVBL
NEW MARKET*    NOT AVBL
STAUNTON*      NOT AVBL
WAYNESBORO*    NOT AVBL

$$

WVZ021-048>050-054>055-021500-
EASTERN WEST VIRGINIA PANHANDLE

CITY           SKY/WX    TMP DP  RH WIND       PRES   REMARKS
MARTINSBURG    CLOUDY    68  63  84 CALM      29.93F HAZE
PETERSBURG*    NOT AVBL

$$

VAZ036>039-050-021500-
CENTRAL FOOTHILLS

CITY           SKY/WX    TMP DP  RH WIND       PRES   REMARKS
CHARLOTTESVILL CLOUDY    72  62  71 NE10      29.92S
CULPEPER*      CLOUDY    70  63  77 NE6       29.92
ORANGE*        NOT AVBL
GORDONSVILLE*  NOT AVBL
WARRENTON*     NOT AVBL

$$

VAZ055>057-021500-
NORTH AND CENTRAL PIEDMONT

CITY           SKY/WX    TMP DP  RH WIND       PRES   REMARKS
FREDERICKSBRG* NOT AVBL
STAFFORD*      NOT AVBL

$$

NCZ024-NYZ072-PAZ021-071-VAZ022-071-021500-
OTHER REGIONAL OBSERVATIONS

CITY           SKY/WX    TMP DP  RH WIND       PRES   REMARKS
NEW YORK CITY  MOSUNNY   74  57  55 CALM      29.95R
PHILADELPHIA   LGT RAIN  72  63  73 E3        29.92R HAZE
PITTSBURGH     CLOUDY    67  61  81 CALM      29.94F
ROANOKE        LGT RAIN  72  65  78 W8        29.96S
RICHMOND       CLOUDY    77  71  82 S6        29.88S
RALEIGH        CLOUDY    78  71  79 W9        29.95R

$$

ANZ530>537-021500-
MARINE OBSERVATIONS

STATION/POSITION TIME  TEMP    WIND        PRES
                       AIR SEA DIR/SP/G
                 (UTC) (F)     (DEG/KT/KT) (MB)
THOMAS PT LIGHT  NOT AVBL
BALT KEY BRIDGE  1300   71      30/  2/  3 1013.0R
COVE POINT       1300   74      50/ 15/ 17 1012.2F
LEWISETTA        1300   75 81  220/  6/  8 1011.1F
SOLOMONS ISLAND  1300      79                N/A
PINEY POINT      1300          250/  1/  2   N/A

$$



USA.gov is the U.S. government's official web portal to all federal, state and local government web resources and services.